Location: Mountain Grove
(34.0887°N, 86.6172°W)
Time: 15:12:44
(UTC+00:00)

SJ-6B - Pass Details

Date: 14 July 2020
Orbit: 509 x 582 km, 97.6° (Epoch: 13 August)

Event Time Altitude Azimuth Distance (km) Brightness Sun altitude
Exits shadow 01:35:13 - 164° (SSE) 2,564 5.8 -7.3°
Reaches altitude 10° 01:36:56 10° 163° (SSE) 1,848 5.1 -7.6°
Maximum altitude 01:40:56 78° 78° (ENE) 587 2.9 -8.3°
Drops below altitude 10° 01:45:02 10° 351° (N) 1,892 6.2 -9.0°
Sets 01:47:13 0° 350° (N) 2,801 7.1 -9.4°
